| time (UTC) | temp F | wind direction | speed knots | gust knots | rain 1hr in | rain 24hr in | rain mn in | humidity % | barometer mb |
| 20260906182551 | 76 | 0 | 0.0 | 2.6 | 0.00 | 0.00 | 0.00 | 81 | 1016.6 |
| 20260906182051 | 76 | 0 | 0.0 | 2.6 | 0.00 | 0.00 | 0.00 | 82 | 1016.6 |
| 20260906181608 | 76 | 0 | 0.0 | 6.1 | 0.00 | 0.00 | 0.00 | 81 | 1016.4 |
| 20260906181051 | 76 | 0 | 0.9 | 6.1 | 0.00 | 0.00 | 0.00 | 81 | 1016.2 |
| 20260906180552 | 76 | 251 | 0.9 | 4.3 | 0.00 | 0.00 | 0.00 | 80 | 1016.3 |
| 20260906180112 | 76 | 0 | 0.0 | 7.0 | 0.00 | 0.00 | 0.00 | 81 | 1016.4 |
| 20260906175555 | 76 | 0 | 0.9 | 7.0 | 0.00 | 0.00 | 0.00 | 81 | 1016.6 |
| 20260906175052 | 76 | 0 | 0.0 | 5.2 | 0.00 | 0.00 | 0.00 | 81 | 1016.7 |
| 20260906174602 | 76 | 198 | 0.9 | 5.2 | 0.00 | 0.00 | 0.00 | 80 | 1016.7 |
| 20260906174051 | 76 | 180 | 0.9 | 5.2 | 0.00 | 0.00 | 0.00 | 80 | 1016.8 |
| 20260906173550 | 77 | 193 | 0.0 | 3.5 | 0.00 | 0.00 | 0.00 | 80 | 1017.0 |
| 20260906173110 | 77 | 0 | 0.0 | 5.2 | 0.00 | 0.00 | 0.00 | 79 | 1016.9 |
| 20260906172554 | 77 | 227 | 0.0 | 5.2 | 0.00 | 0.00 | 0.00 | 81 | 1016.8 |
| 20260906172051 | 77 | 0 | 0.9 | 4.3 | 0.00 | 0.00 | 0.00 | 80 | 1017.0 |
| 20260906171613 | 77 | 209 | 0.9 | 6.1 | 0.00 | 0.00 | 0.00 | 80 | 1017.1 |
| 20260906171050 | 76 | 17 | 1.7 | 6.1 | 0.00 | 0.00 | 0.00 | 80 | 1017.2 |
| 20260906170556 | 76 | 143 | 0.9 | 6.1 | 0.00 | 0.00 | 0.00 | 82 | 1017.3 |
| 20260906170111 | 75 | 0 | 0.9 | 7.0 | 0.00 | 0.00 | 0.00 | 83 | 1017.2 |
| 20260906165551 | 75 | 106 | 1.7 | 7.0 | 0.00 | 0.00 | 0.00 | 82 | 1017.2 |
| 20260906165051 | 75 | 247 | 2.6 | 7.8 | 0.00 | 0.00 | 0.00 | 83 | 1017.2 |
| 20260906164604 | 74 | 144 | 1.7 | 8.7 | 0.00 | 0.00 | 0.00 | 85 | 1017.2 |
| 20260906164051 | 74 | 128 | 1.7 | 8.7 | 0.00 | 0.00 | 0.00 | 84 | 1017.2 |
| 20260906163554 | 73 | 0 | 2.6 | 7.0 | 0.00 | 0.00 | 0.00 | 86 | 1017.3 |
| 20260906163104 | 73 | 147 | 1.7 | 5.2 | 0.00 | 0.00 | 0.00 | 86 | 1017.2 |
| 20260906162550 | 73 | 53 | 1.7 | 4.3 | 0.00 | 0.00 | 0.00 | 87 | 1017.2 |
| 20260906162050 | 72 | 74 | 0.9 | 4.3 | 0.00 | 0.00 | 0.00 | 88 | 1017.1 |
| 20260906161612 | 72 | 104 | 1.7 | 6.1 | 0.00 | 0.00 | 0.00 | 88 | 1017.1 |
| 20260906161049 | 72 | 186 | 0.9 | 6.1 | 0.00 | 0.00 | 0.00 | 89 | 1017.3 |
| 20260906160549 | 71 | 158 | 0.9 | 3.5 | 0.00 | 0.00 | 0.00 | 89 | 1017.4 |
| 20260906160104 | 71 | 0 | 0.0 | 4.3 | 0.00 | 0.00 | 0.00 | 89 | 1017.3 |
| 20260906155549 | 71 | 0 | 0.0 | 5.2 | 0.00 | 0.00 | 0.00 | 89 | 1017.3 |
| 20260906155049 | 71 | 122 | 0.9 | 5.2 | 0.00 | 0.00 | 0.00 | 89 | 1017.0 |
| 20260906154606 | 71 | 71 | 0.0 | 3.5 | 0.00 | 0.00 | 0.00 | 89 | 1017.1 |
| 20260906154049 | 71 | 182 | 0.0 | 2.6 | 0.00 | 0.00 | 0.00 | 90 | 1017.2 |
| 20260906153550 | 71 | 0 | 0.0 | 2.6 | 0.00 | 0.00 | 0.00 | 90 | 1017.3 |
| 20260906153105 | 71 | 259 | 0.9 | 2.6 | 0.00 | 0.00 | 0.00 | 90 | 1017.3 |
| 20260906152549 | 71 | 128 | 0.0 | 5.2 | 0.00 | 0.00 | 0.00 | 91 | 1017.4 |
| 20260906152049 | 71 | 0 | 0.0 | 5.2 | 0.00 | 0.00 | 0.00 | 91 | 1017.5 |
| 20260906151606 | 70 | 198 | 0.9 | 5.2 | 0.00 | 0.00 | 0.00 | 91 | 1017.5 |
| 20260906151051 | 70 | 0 | 0.0 | 4.3 | 0.00 | 0.00 | 0.00 | 92 | 1017.5 |
| 20260906150549 | 70 | 74 | 0.9 | 4.3 | 0.00 | 0.00 | 0.00 | 92 | 1017.5 |
| 20260906150118 | 70 | 0 | 0.0 | 3.5 | 0.00 | 0.00 | 0.00 | 93 | 1017.5 |
| 20260906145551 | 69 | 38 | 0.0 | 5.2 | 0.00 | 0.00 | 0.00 | 93 | 1017.3 |
| 20260906145050 | 69 | 49 | 0.9 | 5.2 | 0.00 | 0.00 | 0.00 | 94 | 1017.1 |
| 20260906144611 | 69 | 258 | 0.9 | 5.2 | 0.00 | 0.00 | 0.00 | 94 | 1017.1 |
| 20260906144049 | 69 | 217 | 0.9 | 4.3 | 0.00 | 0.00 | 0.00 | 94 | 1017.0 |
| 20260906143549 | 69 | 165 | 0.9 | 5.2 | 0.00 | 0.00 | 0.00 | 95 | 1017.0 |
| 20260906143105 | 69 | 0 | 0.9 | 5.2 | 0.00 | 0.00 | 0.00 | 95 | 1017.2 |
| 20260906142549 | 69 | 194 | 0.0 | 2.6 | 0.00 | 0.00 | 0.00 | 96 | 1017.3 |
| 20260906142050 | 69 | 0 | 0.0 | 2.6 | 0.00 | 0.00 | 0.00 | 96 | 1017.3 |
| 20260906141625 | 68 | 0 | 0.0 | 2.6 | 0.00 | 0.00 | 0.00 | 96 | 1017.3 |
| 20260906141050 | 68 | 200 | 0.0 | 2.6 | 0.00 | 0.00 | 0.00 | 96 | 1017.3 |
| 20260906140550 | 68 | 0 | 0.0 | 2.6 | 0.00 | 0.00 | 0.00 | 96 | 1017.3 |
| 20260906140108 | 68 | 141 | 0.9 | 2.6 | 0.00 | 0.00 | 0.00 | 96 | 1017.3 |
| 20260906135551 | 68 | 0 | 0.0 | 2.6 | 0.00 | 0.00 | 0.00 | 97 | 1017.3 |
| 20260906135051 | 68 | 0 | 0.0 | 2.6 | 0.00 | 0.00 | 0.00 | 97 | 1017.2 |
| 20260906134631 | 68 | 0 | 0.9 | 3.5 | 0.00 | 0.00 | 0.00 | 97 | 1017.1 |
| 20260906134050 | 68 | 0 | 0.9 | 3.5 | 0.00 | 0.00 | 0.00 | 97 | 1017.0 |
| 20260906133550 | 68 | 312 | 0.0 | 3.5 | 0.00 | 0.00 | 0.00 | 97 | 1017.1 |
| 20260906133113 | 68 | 0 | 0.0 | 4.3 | 0.00 | 0.00 | 0.00 | 97 | 1017.0 |
| 20260906132550 | 68 | 179 | 0.0 | 4.3 | 0.00 | 0.00 | 0.00 | 97 | 1017.0 |
| 20260906132050 | 67 | 0 | 0.0 | 2.6 | 0.00 | 0.00 | 0.00 | 97 | 1016.8 |
| 20260906131604 | 67 | 113 | 0.0 | 2.6 | 0.00 | 0.00 | 0.00 | 97 | 1016.7 |
| 20260906131049 | 67 | 0 | 0.0 | 3.5 | 0.00 | 0.00 | 0.00 | 97 | 1016.5 |
| 20260906130549 | 67 | 0 | 0.9 | 4.3 | 0.00 | 0.00 | 0.00 | 97 | 1016.4 |
| 20260906130148 | 67 | 202 | 0.0 | 4.3 | 0.00 | 0.00 | 0.00 | 97 | 1016.4 |
| 20260906125551 | 67 | 178 | 0.0 | 2.6 | 0.00 | 0.00 | 0.00 | 97 | 1016.4 |
| 20260906125050 | 66 | 0 | 0.0 | 2.6 | 0.00 | 0.00 | 0.00 | 97 | 1016.5 |
| 20260906124611 | 66 | 65 | 0.0 | 2.6 | 0.00 | 0.00 | 0.00 | 97 | 1016.6 |
| 20260906124050 | 66 | 0 | 0.0 | 2.6 | 0.00 | 0.00 | 0.00 | 97 | 1016.5 |
| 20260906123549 | 66 | 0 | 0.0 | 2.6 | 0.00 | 0.00 | 0.00 | 98 | 1016.5 |
| 20260906123105 | 65 | 125 | 0.0 | 1.7 | 0.00 | 0.00 | 0.00 | 97 | 1016.4 |
| 20260906122550 | 65 | 0 | 0.0 | 1.7 | 0.00 | 0.00 | 0.00 | 97 | 1016.4 |
| 20260906122049 | 64 | 0 | 0.0 | 1.7 | 0.00 | 0.00 | 0.00 | 97 | 1016.4 |
| 20260906121610 | 63 | 0 | 0.0 | 0.9 | 0.00 | 0.00 | 0.00 | 97 | 1016.3 |
| 20260906121049 | 63 | 0 | 0.0 | 0.9 | 0.00 | 0.00 | 0.00 | 97 | 1016.3 |
| 20260906120549 | 62 | 0 | 0.0 | 0.9 | 0.00 | 0.00 | 0.00 | 97 | 1016.5 |
| 20260906120110 | 62 | 0 | 0.0 | 0.0 | 0.00 | 0.00 | 0.00 | 96 | 1016.3 |
| 20260906115549 | 62 | 0 | 0.0 | 0.0 | 0.00 | 0.00 | 0.00 | 96 | 1016.2 |
| 20260906115049 | 62 | 0 | 0.0 | 0.0 | 0.00 | 0.00 | 0.00 | 96 | 1016.2 |
| 20260906114616 | 62 | 0 | 0.0 | 0.0 | 0.00 | 0.00 | 0.00 | 95 | 1016.1 |
| 20260906114046 | 62 | 0 | 0.0 | 0.0 | 0.00 | 0.00 | 0.00 | 95 | 1016.1 |
| 20260906113549 | 62 | 0 | 0.0 | 0.9 | 0.00 | 0.00 | 0.00 | 95 | 1016.2 |
| 20260906113109 | 62 | 0 | 0.0 | 0.9 | 0.00 | 0.00 | 0.00 | 96 | 1016.2 |
| 20260906112549 | 62 | 0 | 0.0 | 0.9 | 0.00 | 0.00 | 0.00 | 96 | 1016.1 |
| 20260906112049 | 62 | 0 | 0.0 | 0.0 | 0.00 | 0.00 | 0.00 | 95 | 1016.1 |
| 20260906111603 | 62 | 0 | 0.0 | 0.0 | 0.00 | 0.00 | 0.00 | 95 | 1016.1 |
| 20260906111050 | 62 | 0 | 0.0 | 0.0 | 0.00 | 0.00 | 0.00 | 95 | 1016.1 |
| 20260906110550 | 62 | 0 | 0.0 | 0.0 | 0.00 | 0.00 | 0.00 | 95 | 1016.1 |
| 20260906110105 | 62 | 0 | 0.0 | 0.0 | 0.00 | 0.00 | 0.00 | 95 | 1016.1 |
| 20260906105549 | 62 | 0 | 0.0 | 0.0 | 0.00 | 0.00 | 0.00 | 95 | 1016.0 |
| 20260906105049 | 63 | 0 | 0.0 | 0.0 | 0.00 | 0.00 | 0.00 | 95 | 1016.0 |
| 20260906104603 | 63 | 0 | 0.0 | 0.0 | 0.00 | 0.00 | 0.00 | 94 | 1015.9 |
| 20260906104049 | 63 | 0 | 0.0 | 0.0 | 0.00 | 0.00 | 0.00 | 95 | 1015.9 |
| 20260906103549 | 63 | 0 | 0.0 | 0.0 | 0.00 | 0.00 | 0.00 | 95 | 1015.8 |
| 20260906103102 | 63 | 0 | 0.0 | 0.0 | 0.00 | 0.00 | 0.00 | 94 | 1015.8 |
| 20260906102553 | 64 | 0 | 0.0 | 0.0 | 0.00 | 0.00 | 0.00 | 94 | 1015.7 |
| 20260906102049 | 64 | 0 | 0.0 | 0.0 | 0.00 | 0.00 | 0.00 | 95 | 1015.8 |
| 20260906101604 | 64 | 0 | 0.0 | 0.0 | 0.00 | 0.00 | 0.00 | 95 | 1015.7 |
| 20260906101049 | 64 | 0 | 0.0 | 0.0 | 0.00 | 0.00 | 0.00 | 94 | 1015.7 |
| 20260906100556 | 64 | 0 | 0.0 | 0.0 | 0.00 | 0.00 | 0.00 | 94 | 1015.6 |
| 20260906095549 | 64 | 0 | 0.0 | 0.0 | 0.00 | 0.00 | 0.00 | 94 | 1015.6 |
| 20260906095049 | 65 | 0 | 0.0 | 0.0 | 0.00 | 0.00 | 0.00 | 94 | 1015.5 |
| 20260906094604 | 65 | 0 | 0.0 | 0.0 | 0.00 | 0.00 | 0.00 | 94 | 1015.3 |
| 20260906094049 | 65 | 0 | 0.0 | 0.0 | 0.00 | 0.00 | 0.00 | 94 | 1015.3 |
| 20260906093550 | 65 | 0 | 0.0 | 0.0 | 0.00 | 0.00 | 0.00 | 94 | 1015.2 |
| 20260906093100 | 65 | 0 | 0.0 | 0.9 | 0.00 | 0.00 | 0.00 | 94 | 1015.0 |
| 20260906092551 | 66 | 0 | 0.0 | 1.7 | 0.00 | 0.00 | 0.00 | 94 | 1014.9 |
| 20260906092052 | 66 | 0 | 0.0 | 1.7 | 0.00 | 0.00 | 0.00 | 94 | 1015.0 |
| 20260906091605 | 66 | 0 | 0.0 | 1.7 | 0.00 | 0.00 | 0.00 | 94 | 1015.0 |
| 20260906091051 | 66 | 0 | 0.0 | 0.9 | 0.00 | 0.00 | 0.00 | 93 | 1015.0 |
| 20260906090549 | 66 | 0 | 0.0 | 0.0 | 0.00 | 0.00 | 0.00 | 94 | 1015.0 |
| 20260906090104 | 67 | 0 | 0.0 | 1.7 | 0.00 | 0.00 | 0.00 | 93 | 1015.0 |
| 20260906085550 | 67 | 0 | 0.0 | 1.7 | 0.00 | 0.00 | 0.00 | 93 | 1015.0 |
| 20260906085050 | 67 | 0 | 0.0 | 2.6 | 0.00 | 0.00 | 0.00 | 93 | 1014.9 |
| 20260906084604 | 67 | 0 | 0.0 | 2.6 | 0.00 | 0.00 | 0.00 | 94 | 1014.8 |
| 20260906084053 | 67 | 109 | 0.0 | 1.7 | 0.00 | 0.00 | 0.00 | 94 | 1014.8 |
| 20260906083549 | 67 | 0 | 0.0 | 1.7 | 0.00 | 0.00 | 0.00 | 93 | 1014.8 |
| 20260906083104 | 68 | 0 | 0.0 | 1.7 | 0.00 | 0.00 | 0.00 | 93 | 1014.9 |
| 20260906082550 | 68 | 0 | 0.0 | 1.7 | 0.00 | 0.00 | 0.00 | 93 | 1014.9 |
| 20260906082050 | 68 | 0 | 0.0 | 1.7 | 0.00 | 0.00 | 0.00 | 93 | 1014.8 |
| 20260906081602 | 68 | 0 | 0.0 | 1.7 | 0.00 | 0.00 | 0.00 | 93 | 1014.9 |
| 20260906081053 | 68 | 86 | 0.0 | 2.6 | 0.00 | 0.00 | 0.00 | 93 | 1014.9 |
| 20260906080549 | 68 | 0 | 0.0 | 2.6 | 0.00 | 0.00 | 0.00 | 93 | 1014.9 |
| 20260906080106 | 68 | 105 | 0.0 | 3.5 | 0.00 | 0.00 | 0.00 | 93 | 1014.9 |
| 20260906075549 | 68 | 188 | 0.0 | 3.5 | 0.00 | 0.00 | 0.00 | 93 | 1014.9 |
| 20260906075049 | 68 | 0 | 0.0 | 2.6 | 0.00 | 0.00 | 0.00 | 93 | 1014.9 |
| 20260906074606 | 68 | 25 | 0.0 | 2.6 | 0.00 | 0.00 | 0.00 | 93 | 1014.9 |
| 20260906074049 | 69 | 0 | 0.0 | 2.6 | 0.00 | 0.00 | 0.00 | 93 | 1014.9 |
| 20260906073550 | 69 | 229 | 0.0 | 1.7 | 0.00 | 0.00 | 0.00 | 94 | 1015.0 |
| 20260906073100 | 69 | 0 | 0.0 | 1.7 | 0.00 | 0.00 | 0.00 | 94 | 1015.1 |
| 20260906072550 | 68 | 0 | 0.0 | 1.7 | 0.00 | 0.00 | 0.00 | 94 | 1015.2 |
| 20260906072049 | 69 | 164 | 0.0 | 0.9 | 0.00 | 0.00 | 0.00 | 94 | 1015.3 |
| 20260906071606 | 69 | 0 | 0.0 | 2.6 | 0.00 | 0.00 | 0.00 | 94 | 1015.3 |
| 20260906071053 | 69 | 0 | 0.0 | 2.6 | 0.00 | 0.00 | 0.00 | 94 | 1015.2 |
| 20260906070550 | 69 | 0 | 0.0 | 4.3 | 0.00 | 0.00 | 0.00 | 94 | 1015.3 |
| 20260906070105 | 69 | 5 | 0.0 | 4.3 | 0.00 | 0.00 | 0.00 | 94 | 1015.2 |
| 20260906065552 | 69 | 60 | 0.9 | 2.6 | 0.00 | 0.00 | 0.00 | 95 | 1015.2 |
| 20260906065050 | 69 | 0 | 0.0 | 2.6 | 0.00 | 0.00 | 0.00 | 95 | 1015.1 |
| 20260906064602 | 69 | 0 | 0.0 | 2.6 | 0.00 | 0.00 | 0.00 | 95 | 1015.3 |
| 20260906064050 | 69 | 0 | 0.0 | 3.5 | 0.00 | 0.00 | 0.00 | 95 | 1015.2 |
| 20260906063549 | 69 | 0 | 0.0 | 3.5 | 0.00 | 0.00 | 0.00 | 95 | 1015.3 |
| 20260906063103 | 69 | 0 | 0.0 | 3.5 | 0.00 | 0.00 | 0.00 | 95 | 1015.4 |
| 20260906062549 | 69 | 121 | 0.0 | 0.9 | 0.00 | 0.00 | 0.00 | 95 | 1015.4 |
| 20260906062049 | 69 | 0 | 0.0 | 1.7 | 0.00 | 0.00 | 0.00 | 96 | 1015.4 |
| 20260906061629 | 69 | 0 | 0.0 | 1.7 | 0.00 | 0.00 | 0.00 | 96 | 1015.4 |
| 20260906061049 | 69 | 0 | 0.0 | 0.9 | 0.00 | 0.00 | 0.00 | 96 | 1015.4 |
| 20260906060549 | 68 | 0 | 0.0 | 0.9 | 0.00 | 0.00 | 0.00 | 96 | 1015.4 |
| 20260906060123 | 68 | 0 | 0.0 | 1.7 | 0.00 | 0.00 | 0.00 | 96 | 1015.6 |
| 20260906055549 | 68 | 0 | 0.0 | 1.7 | 0.00 | 0.00 | 0.00 | 96 | 1015.6 |
| 20260906055049 | 68 | 0 | 0.0 | 0.9 | 0.00 | 0.00 | 0.00 | 96 | 1015.6 |
| 20260906054605 | 68 | 0 | 0.0 | 0.9 | 0.00 | 0.00 | 0.00 | 96 | 1015.6 |
| 20260906054050 | 68 | 0 | 0.0 | 0.9 | 0.00 | 0.00 | 0.00 | 96 | 1015.6 |
| 20260906053550 | 67 | 0 | 0.0 | 0.9 | 0.00 | 0.00 | 0.00 | 96 | 1015.6 |
| 20260906053102 | 67 | 0 | 0.0 | 0.9 | 0.00 | 0.00 | 0.00 | 95 | 1015.7 |
| 20260906052551 | 67 | 0 | 0.0 | 0.0 | 0.00 | 0.00 | 0.00 | 95 | 1015.8 |
| 20260906052049 | 67 | 0 | 0.0 | 0.0 | 0.00 | 0.00 | 0.00 | 95 | 1015.7 |
| 20260906051609 | 68 | 0 | 0.0 | 0.0 | 0.00 | 0.00 | 0.00 | 95 | 1015.7 |
| 20260906051049 | 68 | 0 | 0.0 | 0.0 | 0.00 | 0.00 | 0.00 | 95 | 1015.7 |
| 20260906050551 | 68 | 0 | 0.0 | 0.0 | 0.00 | 0.00 | 0.00 | 95 | 1015.7 |
| 20260906050108 | 68 | 0 | 0.0 | 0.0 | 0.00 | 0.00 | 0.00 | 95 | 1015.8 |
| 20260906045549 | 68 | 0 | 0.0 | 0.0 | 0.00 | 0.00 | 0.00 | 95 | 1015.9 |
| 20260906045049 | 68 | 0 | 0.0 | 0.0 | 0.00 | 0.00 | 0.00 | 95 | 1015.9 |
| 20260906044602 | 68 | 0 | 0.0 | 0.0 | 0.00 | 0.00 | 0.00 | 95 | 1015.9 |
| 20260906044051 | 68 | 0 | 0.0 | 0.0 | 0.00 | 0.00 | 0.00 | 95 | 1016.0 |
| 20260906043553 | 68 | 0 | 0.0 | 0.0 | 0.00 | 0.00 | 0.00 | 95 | 1016.0 |
| 20260906043107 | 68 | 0 | 0.0 | 0.0 | 0.00 | 0.00 | 0.00 | 95 | 1016.0 |
| 20260906042549 | 68 | 0 | 0.0 | 0.0 | 0.00 | 0.00 | 0.00 | 95 | 1016.0 |
| 20260906042049 | 68 | 0 | 0.0 | 0.9 | 0.00 | 0.00 | 0.00 | 95 | 1016.0 |
| 20260906041605 | 68 | 0 | 0.0 | 0.9 | 0.00 | 0.00 | 0.00 | 95 | 1016.0 |
| 20260906041049 | 68 | 0 | 0.0 | 0.0 | 0.00 | 0.00 | 0.00 | 95 | 1015.6 |
| 20260906040549 | 68 | 0 | 0.0 | 0.0 | 0.00 | 0.00 | 0.00 | 95 | 1015.6 |
| 20260906040109 | 68 | 0 | 0.0 | 0.0 | 0.00 | 0.00 | 0.00 | 94 | 1015.6 |
| 20260906035549 | 68 | 0 | 0.0 | 0.0 | 0.00 | 0.00 | 0.00 | 94 | 1015.5 |
| 20260906035049 | 68 | 0 | 0.0 | 0.0 | 0.00 | 0.00 | 0.00 | 94 | 1015.4 |
| 20260906034606 | 68 | 0 | 0.0 | 0.0 | 0.00 | 0.00 | 0.00 | 94 | 1015.5 |
| 20260906034049 | 68 | 0 | 0.0 | 0.0 | 0.00 | 0.00 | 0.00 | 94 | 1015.4 |
| 20260906033550 | 68 | 0 | 0.0 | 0.0 | 0.00 | 0.00 | 0.00 | 94 | 1015.4 |
| 20260906033103 | 68 | 0 | 0.0 | 0.9 | 0.00 | 0.00 | 0.00 | 94 | 1015.6 |
| 20260906032549 | 69 | 0 | 0.0 | 0.9 | 0.00 | 0.00 | 0.00 | 94 | 1015.7 |
| 20260906032050 | 69 | 0 | 0.0 | 0.9 | 0.00 | 0.00 | 0.00 | 94 | 1015.8 |
| 20260906031605 | 69 | 0 | 0.0 | 0.0 | 0.00 | 0.00 | 0.00 | 94 | 1015.8 |
| 20260906031051 | 69 | 0 | 0.0 | 0.0 | 0.00 | 0.00 | 0.00 | 94 | 1015.8 |
| 20260906030549 | 69 | 0 | 0.0 | 0.0 | 0.00 | 0.00 | 0.00 | 94 | 1015.7 |
| 20260906030111 | 69 | 0 | 0.0 | 0.0 | 0.00 | 0.00 | 0.00 | 94 | 1015.8 |
| 20260906025549 | 69 | 0 | 0.0 | 0.0 | 0.00 | 0.00 | 0.00 | 94 | 1015.7 |
| 20260906025049 | 69 | 0 | 0.0 | 0.0 | 0.00 | 0.00 | 0.00 | 93 | 1015.7 |
| 20260906024608 | 69 | 0 | 0.0 | 0.0 | 0.00 | 0.00 | 0.00 | 93 | 1015.6 |
| 20260906024051 | 69 | 0 | 0.0 | 0.0 | 0.00 | 0.00 | 0.00 | 93 | 1015.6 |
| 20260906023549 | 69 | 0 | 0.0 | 0.0 | 0.00 | 0.00 | 0.00 | 93 | 1015.5 |
| 20260906023110 | 69 | 0 | 0.0 | 0.0 | 0.00 | 0.00 | 0.00 | 94 | 1015.5 |
| 20260906022552 | 69 | 0 | 0.0 | 0.0 | 0.00 | 0.00 | 0.00 | 93 | 1015.4 |
| 20260906022049 | 69 | 0 | 0.0 | 0.0 | 0.00 | 0.00 | 0.00 | 93 | 1015.4 |
| 20260906021611 | 69 | 0 | 0.0 | 0.0 | 0.00 | 0.00 | 0.00 | 92 | 1015.3 |
| 20260906021049 | 69 | 0 | 0.0 | 0.0 | 0.00 | 0.00 | 0.00 | 92 | 1015.1 |
| 20260906020549 | 69 | 0 | 0.0 | 0.0 | 0.00 | 0.00 | 0.00 | 92 | 1014.9 |
| 20260906020105 | 69 | 0 | 0.0 | 0.0 | 0.00 | 0.00 | 0.00 | 91 | 1014.9 |
| 20260906015549 | 69 | 0 | 0.0 | 0.0 | 0.00 | 0.00 | 0.00 | 91 | 1014.9 |
| 20260906015049 | 70 | 0 | 0.0 | 0.0 | 0.00 | 0.00 | 0.00 | 91 | 1014.8 |
| 20260906014608 | 70 | 0 | 0.0 | 0.0 | 0.00 | 0.00 | 0.00 | 90 | 1014.7 |
| 20260906014048 | 70 | 0 | 0.0 | 0.0 | 0.00 | 0.00 | 0.00 | 90 | 1014.6 |
| 20260906013549 | 71 | 0 | 0.0 | 0.0 | 0.00 | 0.00 | 0.00 | 90 | 1014.4 |
| 20260906013102 | 71 | 0 | 0.0 | 0.0 | 0.00 | 0.00 | 0.00 | 90 | 1014.3 |
| 20260906012550 | 71 | 0 | 0.0 | 0.0 | 0.00 | 0.00 | 0.00 | 89 | 1014.1 |
| 20260906012049 | 71 | 0 | 0.0 | 0.0 | 0.00 | 0.00 | 0.00 | 89 | 1014.0 |
| 20260906011608 | 72 | 0 | 0.0 | 0.0 | 0.00 | 0.00 | 0.00 | 88 | 1013.9 |
| 20260906011050 | 72 | 0 | 0.0 | 0.0 | 0.00 | 0.00 | 0.00 | 88 | 1013.8 |
| 20260906010549 | 73 | 0 | 0.0 | 0.0 | 0.00 | 0.00 | 0.00 | 88 | 1014.0 |
| 20260906010108 | 73 | 0 | 0.0 | 0.0 | 0.00 | 0.00 | 0.00 | 88 | 1014.0 |
| 20260906005549 | 73 | 0 | 0.0 | 0.0 | 0.00 | 0.00 | 0.00 | 87 | 1014.0 |
| 20260906005052 | 74 | 0 | 0.0 | 0.0 | 0.00 | 0.00 | 0.00 | 87 | 1014.0 |
| 20260906004605 | 74 | 0 | 0.0 | 0.0 | 0.00 | 0.00 | 0.00 | 86 | 1014.1 |
| 20260906004051 | 74 | 0 | 0.0 | 0.0 | 0.00 | 0.00 | 0.00 | 85 | 1014.0 |
| 20260906003549 | 75 | 0 | 0.0 | 0.0 | 0.00 | 0.00 | 0.00 | 84 | 1014.0 |
| 20260906003101 | 75 | 0 | 0.0 | 1.7 | 0.00 | 0.00 | 0.00 | 84 | 1014.0 |
| 20260906002548 | 75 | 0 | 0.0 | 1.7 | 0.00 | 0.00 | 0.00 | 84 | 1014.1 |
| 20260906002048 | 75 | 0 | 0.0 | 0.9 | 0.00 | 0.00 | 0.00 | 83 | 1014.0 |
| 20260906001606 | 76 | 0 | 0.0 | 0.9 | 0.00 | 0.00 | 0.00 | 83 | 1014.0 |
| 20260906001050 | 76 | 0 | 0.0 | 0.9 | 0.00 | 0.00 | 0.00 | 83 | 1014.1 |
| 20260906000549 | 76 | 0 | 0.0 | 0.9 | 0.00 | 0.00 | 0.00 | 82 | 1014.0 |
| 20260906000110 | 77 | 0 | 0.0 | 2.6 | 0.00 | 0.00 | 0.00 | 82 | 1014.0 |
| 20260905235549 | 77 | 0 | 0.0 | 2.6 | 0.00 | 0.00 | 0.00 | 81 | 1014.0 |
| 20260905235052 | 77 | 0 | 0.0 | 2.6 | 0.00 | 0.00 | 0.00 | 80 | 1014.0 |
| 20260905234602 | 77 | 0 | 0.0 | 2.6 | 0.00 | 0.00 | 0.00 | 80 | 1014.0 |
| 20260905234048 | 78 | 0 | 0.0 | 4.3 | 0.00 | 0.00 | 0.00 | 79 | 1014.1 |
| 20260905233553 | 78 | 73 | 0.0 | 4.3 | 0.00 | 0.00 | 0.00 | 79 | 1014.0 |
| 20260905233120 | 79 | 0 | 0.0 | 3.5 | 0.00 | 0.00 | 0.00 | 79 | 1013.9 |
| 20260905232549 | 79 | 103 | 0.0 | 3.5 | 0.00 | 0.00 | 0.00 | 77 | 1013.8 |
| 20260905232048 | 80 | 119 | 0.9 | 3.5 | 0.00 | 0.00 | 0.00 | 77 | 1013.7 |
| 20260905231605 | 80 | 0 | 0.9 | 3.5 | 0.00 | 0.00 | 0.00 | 77 | 1013.6 |
| 20260905231053 | 80 | 45 | 0.9 | 6.1 | 0.00 | 0.00 | 0.00 | 77 | 1013.6 |
| 20260905230550 | 80 | 51 | 0.9 | 6.1 | 0.00 | 0.00 | 0.00 | 77 | 1013.7 |
| 20260905230106 | 80 | 118 | 0.9 | 5.2 | 0.00 | 0.00 | 0.00 | 76 | 1013.6 |
| 20260905225549 | 80 | 280 | 1.7 | 7.0 | 0.00 | 0.00 | 0.00 | 77 | 1013.7 |
| 20260905225051 | 80 | 209 | 0.9 | 7.0 | 0.00 | 0.00 | 0.00 | 76 | 1013.6 |
| 20260905224602 | 81 | 78 | 1.7 | 7.0 | 0.00 | 0.00 | 0.00 | 75 | 1013.4 |
| 20260905224049 | 82 | 159 | 1.7 | 7.8 | 0.00 | 0.00 | 0.00 | 75 | 1013.3 |
| 20260905223548 | 82 | 182 | 0.9 | 7.8 | 0.00 | 0.00 | 0.00 | 76 | 1013.1 |
| 20260905223106 | 82 | 83 | 2.6 | 7.0 | 0.00 | 0.00 | 0.00 | 75 | 1013.0 |
| 20260905222550 | 81 | 219 | 1.7 | 7.0 | 0.00 | 0.00 | 0.00 | 77 | 1012.9 |
| 20260905222049 | 81 | 111 | 0.9 | 7.0 | 0.00 | 0.00 | 0.00 | 78 | 1012.8 |
| 20260905221605 | 80 | 78 | 2.6 | 7.0 | 0.00 | 0.00 | 0.00 | 78 | 1012.9 |
| 20260905221050 | 80 | 62 | 0.9 | 5.2 | 0.00 | 0.00 | 0.00 | 79 | 1012.9 |
| 20260905220549 | 79 | 32 | 0.9 | 5.2 | 0.00 | 0.00 | 0.00 | 79 | 1012.9 |
| 20260905215549 | 79 | 138 | 0.0 | 3.5 | 0.00 | 0.00 | 0.00 | 80 | 1013.1 |
| 20260905215048 | 79 | 0 | 0.0 | 5.2 | 0.00 | 0.00 | 0.00 | 80 | 1013.0 |
| 20260905214607 | 79 | 109 | 0.9 | 5.2 | 0.00 | 0.00 | 0.00 | 80 | 1012.9 |
| 20260905214130 | 79 | 103 | 0.0 | 7.0 | 0.00 | 0.00 | 0.00 | 79 | 1013.0 |
| 20260905213549 | 79 | 31 | 1.7 | 7.0 | 0.00 | 0.00 | 0.00 | 80 | 1013.1 |
| 20260905213113 | 79 | 25 | 1.7 | 4.3 | 0.00 | 0.00 | 0.00 | 79 | 1013.1 |
| 20260905212553 | 79 | 36 | 0.9 | 4.3 | 0.00 | 0.00 | 0.00 | 80 | 1013.1 |
| 20260905212048 | 79 | 0 | 0.9 | 3.5 | 0.00 | 0.00 | 0.00 | 80 | 1013.1 |
| 20260905211610 | 79 | 0 | 0.9 | 3.5 | 0.00 | 0.00 | 0.00 | 80 | 1013.2 |
| 20260905211049 | 79 | 0 | 0.0 | 6.1 | 0.00 | 0.00 | 0.00 | 80 | 1013.3 |
| 20260905210549 | 79 | 50 | 0.9 | 6.1 | 0.00 | 0.00 | 0.00 | 80 | 1013.1 |
| 20260905210112 | 80 | 73 | 0.0 | 5.2 | 0.00 | 0.00 | 0.00 | 80 | 1013.0 |
| 20260905205550 | 80 | 57 | 0.9 | 5.2 | 0.00 | 0.00 | 0.00 | 79 | 1013.1 |
| 20260905205050 | 80 | 182 | 0.9 | 6.1 | 0.00 | 0.00 | 0.00 | 79 | 1013.2 |
| 20260905204603 | 80 | 92 | 0.0 | 8.7 | 0.00 | 0.00 | 0.00 | 78 | 1013.3 |
| 20260905204051 | 80 | 82 | 0.9 | 8.7 | 0.00 | 0.00 | 0.00 | 79 | 1013.3 |
| 20260905203552 | 80 | 86 | 0.9 | 7.8 | 0.00 | 0.00 | 0.00 | 78 | 1013.4 |
| 20260905203100 | 80 | 76 | 2.6 | 7.8 | 0.00 | 0.00 | 0.00 | 78 | 1013.6 |
| 20260905202550 | 80 | 38 | 1.7 | 6.1 | 0.00 | 0.00 | 0.00 | 78 | 1013.6 |
| 20260905202050 | 81 | 43 | 2.6 | 5.2 | 0.00 | 0.00 | 0.00 | 77 | 1013.6 |
| 20260905201607 | 81 | 149 | 1.7 | 5.2 | 0.00 | 0.00 | 0.00 | 77 | 1013.8 |
| 20260905201050 | 81 | 57 | 1.7 | 7.0 | 0.00 | 0.00 | 0.00 | 77 | 1013.8 |
| 20260905200552 | 81 | 33 | 0.9 | 7.0 | 0.00 | 0.00 | 0.00 | 77 | 1013.9 |
| 20260905200106 | 81 | 122 | 1.7 | 7.0 | 0.00 | 0.00 | 0.00 | 76 | 1013.9 |
| 20260905195551 | 81 | 352 | 2.6 | 7.8 | 0.00 | 0.00 | 0.00 | 77 | 1013.9 |
| 20260905195050 | 81 | 77 | 1.7 | 8.7 | 0.00 | 0.00 | 0.00 | 78 | 1013.9 |
| 20260905194603 | 81 | 98 | 2.6 | 8.7 | 0.00 | 0.00 | 0.00 | 78 | 1013.9 |
| 20260905194050 | 81 | 60 | 3.5 | 7.0 | 0.00 | 0.00 | 0.00 | 77 | 1014.1 |
| 20260905193549 | 81 | 32 | 0.9 | 4.3 | 0.00 | 0.00 | 0.00 | 76 | 1014.4 |
| 20260905193103 | 81 | 107 | 0.9 | 4.3 | 0.00 | 0.00 | 0.00 | 76 | 1014.5 |
| 20260905192550 | 81 | 49 | 0.9 | 6.1 | 0.00 | 0.00 | 0.00 | 76 | 1014.5 |
| 20260905192049 | 82 | 59 | 3.5 | 6.1 | 0.00 | 0.00 | 0.00 | 75 | 1014.5 |
| 20260905191603 | 82 | 74 | 0.9 | 7.8 | 0.00 | 0.00 | 0.00 | 76 | 1014.4 |
| 20260905191050 | 82 | 21 | 2.6 | 7.8 | 0.00 | 0.00 | 0.00 | 75 | 1014.5 |
| 20260905190553 | 81 | 0 | 0.0 | 3.5 | 0.00 | 0.00 | 0.00 | 78 | 1014.6 |
| 20260905190104 | 81 | 0 | 0.0 | 5.2 | 0.00 | 0.00 | 0.00 | 77 | 1014.6 |
| 20260905185551 | 81 | 200 | 0.0 | 5.2 | 0.00 | 0.00 | 0.00 | 77 | 1014.7 |
| 20260905185050 | 81 | 105 | 0.0 | 2.6 | 0.00 | 0.00 | 0.00 | 79 | 1014.9 |
| 20260905184610 | 80 | 0 | 0.9 | 3.5 | 0.00 | 0.00 | 0.00 | 78 | 1014.7 |
| 20260905184050 | 80 | 0 | 0.9 | 5.2 | 0.00 | 0.00 | 0.00 | 79 | 1014.9 |
| 20260905183550 | 80 | 74 | 1.7 | 6.1 | 0.00 | 0.00 | 0.00 | 78 | 1014.9 |
| 20260905183118 | 80 | 104 | 0.9 | 6.1 | 0.00 | 0.00 | 0.00 | 79 | 1014.9 |